Regional Weather Roundup
Issued by NWS

Home | Current Version | Previous Version | Graphics & Text | Print | Product List | Glossary On
Versions: 1 2 3 4 5 6 7 8 9 10 11 12 13 14 15 16 17 18 19 20 21 22 23 24 25 26 27 28 29 30 31 32 33 34 35 36 37 38 39 40 41 42 43 44 45 46 47 48 49 50
000
ASUS43 KMPX 181610
RWRMN
WEATHER ROUNDUP FOR MINNESOTA
NATIONAL WEATHER SERVICE TWIN CITIES/CHANHASSEN MN
1000 AM CST WED JAN 18 2017


NOTE: "FAIR" INDICATES FEW OR NO CLOUDS BELOW 12,000 FEET WITH NO
SIGNIFICANT WEATHER AND/OR OBSTRUCTIONS TO VISIBILITY. N/A MEANS
CURRENT SKY AND/OR WEATHER CONDITIONS ARE NOT AVAILABLE.

MNZ060>063-068>070-181700-
   Twin Cities Metro

CITY           SKY/WX    TMP DP  RH WIND       PRES   REMARKS
TWIN CITIES    CLOUDY    33  27  78 S9        29.91S WCI  25
ST PAUL        CLOUDY    31  28  89 S9        29.92F WCI  23
CRYSTAL        CLOUDY    33  25  72 S10       29.88F WCI  25
BLAINE         SUNNY     36  34  93 SW8       29.89F
LAKEVILLE      CLOUDY    34  28  80 CALM      29.92R
EDEN PRAIRIE   CLOUDY    33  26  75 S14       29.90R WCI  23
SOUTH ST PAUL  CLOUDY    32  28  84 S6        29.92S WCI  27
LAKE ELMO      FAIR      32  28  86 S15       29.91S WCI  22
$$
MNZ001>005-007-008-013>017-022>024-027-028-181700-
   Northwest Minnesota

CITY           SKY/WX    TMP DP  RH WIND       PRES   REMARKS
BEMIDJI        CLOUDY    29  21  73 SW5       29.73R WCI  23
HALLOCK        CLOUDY    21  18  86 S9        29.69R WCI  11
ROSEAU         CLOUDY    23  18  80 S7        29.69R WCI  15
WARROAD        CLOUDY    25  19  80 S6        29.69S WCI  18
THIEF RVR FALL CLOUDY    24  18  77 SW8       29.73S WCI  15
CROOKSTON      CLOUDY    21  18  86 S12       29.76R WCI   9
FOSSTON        CLOUDY    25  18  74 S15       29.76R WCI  12
DETROIT LAKES  CLOUDY    28  21  74 SW8       29.78S WCI  20
MOORHEAD       CLOUDY    23  18  80 S10       29.79S WCI  12
PARK RAPIDS    CLOUDY    23  18  81 SW3       29.77R
MAHNOMEN       FAIR      25  19  80 S13       29.76S WCI  13
$$
MNZ006-009>011-018-025>026-181700-
   North Central Minnesota

CITY           SKY/WX    TMP DP  RH WIND       PRES   REMARKS
BAUDETTE       CLOUDY    23  17  78 S6        29.70R WCI  16
FLAG ISLAND    CLOUDY    16  12  86 SE5       29.69R WCI   9
INTL FALLS     CLOUDY    27  19  72 SW6       29.72R WCI  20
WASKISH        CLOUDY    28  21  74 SW6       29.72S WCI  22
BIG FORK       CLOUDY    27  19  74 S5        29.74R WCI  21
LONGVILLE      CLOUDY    28  21  74 S6        29.76F WCI  22
GRAND RAPIDS   CLOUDY    28  22  78 SW6       29.77F WCI  22
CRANE LAKE     CLOUDY    27  19  74 S6        29.76S WCI  20
ORR            CLOUDY    27  18  69 CALM      29.72R
COOK           CLOUDY    28  21  74 SW6       29.76R WCI  22
WALKER         FAIR      30  21  70 SW7       29.74S WCI  23
$$
MNZ012-019>021-037-181700-
   Northeast Minnesota

CITY           SKY/WX    TMP DP  RH WIND       PRES   REMARKS
DULUTH         CLOUDY    29  24  82 SW12      29.78S WCI  19
ELY            CLOUDY    27  21  80 SW10      29.75R WCI  17
HIBBING        CLOUDY    26  21  81 VRB6      29.76S WCI  19
EVELETH        CLOUDY    28  22  81 SW8       29.77S WCI  19
DULUTH HARBOR  CLOUDY    32  27  80 SW16      29.82F WCI  21
TWO HARBORS    CLOUDY    30  27  86 SW3       29.77S
SILVER BAY     CLOUDY    28  27  93 SW5       29.75F WCI  23
GRAND MARAIS     N/A     35  29  78 W14       29.77R WCI  26
G MARAIS ARPRT SUNNY     27  19  74 SW7       29.71R WCI  19
$$
MNZ029>031-032-039>041-046>048-054>057-064-181700-
   West Central Minnesota

CITY           SKY/WX    TMP DP  RH WIND       PRES   REMARKS
FERGUS FALLS   CLOUDY    25  19  80 S7        29.84F WCI  17
WHEATON        CLOUDY    30  27  86 SE5       29.82S WCI  25
MORRIS         CLOUDY    27  21  80 SE8       29.81S WCI  18
ALEXANDRIA     CLOUDY    27  22  81 SW8       29.80F WCI  19
ELBOW LAKE     FAIR      24  20  85 S9        29.80F WCI  15
WADENA         CLOUDY    27  19  74 S3        29.78S
GLENWOOD       CLOUDY    27  23  86 S9        29.81F WCI  17
APPLETON       CLOUDY    30  21  69 S5        29.83S WCI  25
ORTONVILLE     CLOUDY    28  19  69 CALM      29.82S
MADISON        CLOUDY    30  23  74 S5        29.84S WCI  25
WILLMAR        FAIR      25  23  93 CALM      29.87S
$$
MNZ033>034-036-042>043-049>051-058-059-181700-
   Central Minnesota

CITY           SKY/WX    TMP DP  RH WIND       PRES   REMARKS
ST CLOUD       CLOUDY    26  25  96 S7        29.85F WCI  18
SAUK CENTRE    FAIR      26  22  85 S3        29.82F
PAYNESVILLE    CLOUDY    28  28  96 S9        29.85S WCI  20
AITKIN         CLOUDY    34  21  60 SW8       29.78S WCI  27
PINE RIVER     CLOUDY    25  21  86 CALM      29.82R
BRAINERD       CLOUDY    27  22  81 S10       29.80F WCI  17
STAPLES        CLOUDY    27  21  80 S7        29.78F WCI  19
LONG PRAIRIE   FAIR      28  23  80 S7        29.82S WCI  21
LITTLE FALLS   CLOUDY    27  23  86 S3        29.83F
LITCHFIELD     CLOUDY    30  27  86 SW3       29.86F
BUFFALO        CLOUDY    31  26  80 S8        29.89R WCI  23
MAPLE LAKE     CLOUDY    31  28  85 S6        29.87F WCI  26
HUTCHINSON     CLOUDY    29  28  93 S7        29.89S WCI  22
$$
MNZ037-044-045-052-053-181700-
   East Central Minnesota

CITY           SKY/WX    TMP DP  RH WIND       PRES   REMARKS
PRINCETON      CLOUDY    32  27  80 S7        29.86S WCI  26
MORA           CLOUDY    30  27  86 SW7       29.86F WCI  23
CAMBRIDGE      CLOUDY    32  25  74 S8        29.84F WCI  25
RUSH CITY      CLOUDY    30  25  80 S7        29.86F WCI  23
MOOSE LAKE     CLOUDY    30  25  80 SW10G17   29.81S WCI  21
HINCKLEY       FAIR      30  27  86 S5        29.85S FOG     WCI  25
CLOQUET        SUNNY     28  23  80 S8        29.79S WCI  20
MCGREGOR       CLOUDY    30  25  80 SW6       29.80S WCI  24
$$
MNZ071>073-080-081-089-090-097-098-181700-
   Southwest Minnesota

CITY           SKY/WX    TMP DP  RH WIND       PRES   REMARKS
MONTEVIDEO     CLOUDY    34  30  86 SW8       29.86S WCI  27
GRANITE FALLS  CLOUDY    29  24  83 S9        29.88R WCI  20
CANBY            N/A     34  25  69 CALM      29.85S
MARSHALL       CLOUDY    33  25  72 VRB5      29.87R WCI  29
REDWOOD FALLS  CLOUDY    30  25  81 S7        29.89R WCI  23
OLIVIA         CLOUDY    30  27  86 S10       29.87R WCI  21
PIPESTONE      CLOUDY    28  27  93 SW6       29.86F WCI  22
WINDOM           N/A     32  28  86 SW10      29.88F WCI  24
WORTHINGTON    CLOUDY    33  28  81 SW16      29.89R WCI  23
JACKSON        CLOUDY    32  28  86 SW7       29.90S WCI  26
TRACY          CLOUDY    34  29  83 SW18G25   29.85F WCI  23
SLAYTON        CLOUDY    29  27  91 SW16      29.88F WCI  18
$$
MNZ065>067-074>077-082>085-091>093-181700-
   South Central Minnesota

CITY           SKY/WX    TMP DP  RH WIND       PRES   REMARKS
MANKATO        CLOUDY    32  28  85 S13       29.92S WCI  22
NEW ULM        CLOUDY    28  27  93 S6        29.90F WCI  22
ST JAMES       CLOUDY    30  28  93 S6        29.92S WCI  24
FAIRMONT       CLOUDY    33  28  81 S14       29.93S WCI  23
GLENCOE        CLOUDY    31  29  92 S8        29.90R WCI  24
FARIBAULT      CLOUDY    34  28  80 S8        29.94R WCI  27
OWATONNA       CLOUDY    30  27  86 S13       29.93S FOG     WCI  20
WASECA         CLOUDY    32  30  93 S13       29.94S FOG     WCI  22
ALBERT LEA     CLOUDY    30  30 100 S5        29.95F FOG     WCI  25
$$
MNZ078>079-086>088-094>096-181700-
   Southeast Minnesota

CITY           SKY/WX    TMP DP  RH WIND       PRES   REMARKS
ROCHESTER      FOG       27  27 100 S18       29.95R VSB 1/2 WCI  14
RED WING       CLOUDY    34  27  75 S5        29.94S WCI  30
STANTON        CLOUDY    33  28  83 S7        29.92R HAZE    WCI  26
DODGE CENTER   FOG       28  28 100 S8        29.93S VSB 3/4 WCI  20
WINONA         CLOUDY    34  28  80 S3        29.98S
AUSTIN         FOG       28  27  93 S12       29.97F VSB<1/4 WCI  18
PRESTON        FOG       27  26  96 S18       29.97S VSB 1/2 WCI  14
$$
ABBREVIATIONS USED IN REMARKS
   TC - TEMPERATURES IN CELSIUS
  WCI - WIND CHILL INDEX
   HX - HEAT INDEX
  VSB - VISIBILITY
$$



USA.gov is the U.S. government's official web portal to all federal, state and local government web resources and services.